map of BEL home
BEL - Airport
Location
City:  Belém, Pará, Brazil
Name:Belém International - Val-de-Căes
Old (Alt.):Júlio Cezar Ribeiro
ICAO:SBBE
IATA:BEL

Details
Type:Airport (Aerodrome, Airfield)
Use:Public/Civil, Military, International (customs port of entry)
Latitude:1°22'45"S (-1.379249)
Longitude:48°28'35"W (-48.476291)
Datum:WGS 1984
Elevation:54 ft (16 m)
Variation:20.13°W (WMM2015 magnetic declination)
-0.02° annual change
Runways:2
Longest:9180 × 148 ft (2798 × 45 m), paved

Time
Time Zone:UTC-3
Local Time:

Weather
METAR:SBBE 242300Z 06003KT 9999 FEW018 SCT070 26/24 Q1010
TAF:SBBE 241600Z 2418/2518 06005KT 9999 BKN025 FEW030TCU TN24/2507Z TX29/2516Z PROB30
TEMPO 2418/2421 07010KT 3000 TSRA BKN015 FEW025CB
BECMG 2501/2503 SCT020
RMK PEO

Related Locations
Nearby:
Farthest:WAJY: 12300 mi / 19795 km
Werur [Werur Airport], PB, ID

Find:

   beyond  
but within

Other Information
Maps:
NOTAMs:
Links:
Sources:

  
flag of Brazil
flag of Pará
flag of Belém
  

Sectional Chart

Flight Planning
at skyvector.com

Satellite Image

Google Maps Satellite view

 

Copyright © 2004-2017 Karl L. Swartz. All rights reserved.
The Great Circle Mapper name and logo are trademarks of the Great Circle Mapper.
All other trademarks mentioned herein belong to their respective owners.
Please see credits for attibutions and further copyright information.

  Follow gcmap on Facebook Follow gcmap on Twitter Follow gcmap on Google+ GCmap on LinkedIn

hCard Microformat

Geo Microformat